Location: Unspecified
(0.0000°N, 0.0000°E)
Time: 12:43:20
(UTC+00:00)

Courier 1B Rocket - Visible Passes

Search period start: 07 October 2022 00:00
Search period end: 17 October 2022 00:00
Orbit: 920 x 1202 km, 28.2° (Epoch: 06 October)

Date Brightness Start Highest point End Pass type
(mag) Time Alt. Az. Time Alt. Az. Time Alt. Az.
07 Oct 6.9 03:50:24 17° SSW 03:50:24 17° SSW 03:53:51 10° SSE visible
08 Oct 7.5 02:53:09 11° SSE 02:53:09 11° SSE 02:53:29 10° SSE visible
09 Oct 7.3 03:42:14 11° S 03:42:14 11° S 03:42:53 10° S visible
12 Oct 7.3 19:46:12 10° N 19:46:14 10° N 19:46:14 10° N visible
14 Oct 6.8 19:35:38 10° NNW 19:38:25 17° N 19:38:25 17° N visible
15 Oct 6.9 18:35:30 10° N 18:38:41 13° NNE 18:41:25 11° NE visible
15 Oct 7.2 20:26:36 10° NW 20:27:48 15° NW 20:27:48 15° NW visible
16 Oct 6.2 19:25:48 10° NNW 19:30:53 28° NNE 19:30:53 28° NNE visible
